[[{"header":{"parameterUnit":"m.s-1","parameterCategory":1,"la1":30.2991,"la2":30.254,"lo1":-89.0895,"lo2":-89.0444,"dy":0.0017,"dx":0.0017,"nx":28,"ny":28,"refTime":"2025-11-14T09:00:00:Z","depth":0,"parameterNumber":2,"parameterNumberName":"U-component_of_WINDS"},"data":[0,0,0,0,0,0,0,0,0,0,0,0,0,0,0,0,0,0,0,0,0,0,0,0,0,0,0,0,0,0,0,0,0,0,0,0,0,0,0,0,0,0,0,0,0,0,0,0,0,0,0,0,0,0,0,0,0,0,1.2382,1.2383,0,1.2497,1.2499,1.25,1.252,1.2519,1.2518,1.2517,1.2635,1.2639,1.2643,0,0,0,0,0,0,0,0,0,0,0,0,0,1.2176,1.218,1.2382,1.2383,1.2385,1.2497,1.2499,1.25,1.252,1.2518,1.2517,1.2516,1.2634,1.2638,1.2643,0,0,0,0,0,0,0,0,0,0,0,0,0,1.2276,1.2181,1.2381,1.2408,1.2411,1.2497,1.2499,1.2501,1.252,1.2518,1.2517,1.2516,1.2632,1.2638,1.2644,1.2711,0,0,1.2663,1.2665,0,0,0,0,0,0,0,0,1.227,1.2284,1.2402,1.2406,1.241,1.2493,1.247,1.2571,1.252,1.2479,1.2517,1.2515,1.2589,1.2598,1.2623,1.2717,1.2722,1.2663,1.2667,1.2669,1.2671,0,0,0,0,0,0,0,1.2264,1.2279,1.2427,1.2404,1.2409,1.2413,1.2426,1.2489,1.2541,1.2482,1.2484,1.2497,1.2591,1.2617,1.2626,1.2724,1.2663,1.2668,1.2672,1.2674,1.2878,1.2879,0,0,0,0,0,0,1.2252,1.2273,1.2424,1.2431,1.2335,1.2418,1.2432,1.2468,1.254,1.255,1.2498,1.2498,1.2608,1.2619,1.263,1.2714,1.2669,1.2675,1.2679,1.2876,1.2878,1.288,0,0,0,0,0,0,1.2248,1.2265,1.2419,1.2352,1.2372,1.2424,1.2463,1.2471,1.2497,1.2552,1.2561,1.2516,1.2607,1.2622,1.2691,1.2718,1.2678,1.2683,1.2874,1.2877,1.2879,1.2881,0,0,0,0,0,0,1.2242,1.2264,1.229,1.2353,1.2376,1.2478,1.2465,1.2474,1.2508,1.2508,1.2572,1.2581,1.2607,1.2682,1.2697,1.2726,1.2688,1.2872,1.2875,1.2878,1.2878,1.2883,1.2887,0,0,0,0,0,1.2234,1.2286,1.2291,1.2309,1.241,1.2479,1.2493,1.2522,1.251,1.2537,1.2572,1.2579,1.2713,1.2689,1.2706,1.2737,1.287,1.2874,1.2878,1.2876,1.2882,1.2887,0,0,0,0,0,0,1.2225,1.2295,1.2301,1.2375,1.2421,1.2483,1.2517,1.2527,1.2577,1.2575,1.2609,1.2623,1.2691,1.2721,1.2693,1.2806,1.279,1.2798,1.2783,1.2789,1.2793,1.2784,1.2693,0,0,0,0,0,1.2231,1.2282,1.234,1.24,1.2422,1.2466,1.2497,1.2516,1.2565,1.2584,1.2625,1.2672,1.2725,1.2759,1.281,1.2883,1.2897,1.2913,1.2917,1.292,1.2926,1.2966,1.2974,1.2893,1.2893,1.2893,0,0,1.2245,1.2289,1.2319,1.2399,1.2437,1.2488,1.2482,1.2537,1.2575,1.2593,1.266,1.2691,1.2746,1.2817,1.2851,1.2845,1.2951,1.2925,1.2927,1.2932,1.2971,1.2978,1.2985,1.2895,1.2895,1.2895,0,0,1.2296,1.2335,1.2389,1.2427,1.2484,1.2513,1.2526,1.2586,1.2607,1.2675,1.2689,1.2735,1.2826,1.2864,1.2895,1.2961,1.2969,1.2977,1.2999,1.3037,1.3044,1.3049,1.3072,1.308,1.2983,1.2983,1.2983,0,1.2306,1.2384,1.2415,1.2469,1.2503,1.2521,1.2575,1.2611,1.2682,1.2705,1.2697,1.2811,1.2849,1.2929,1.2945,1.297,1.2985,1.2969,1.304,1.3046,1.3052,1.3074,1.3083,1.2983,1.2983,1.2983,1.2983,0,1.2393,1.2447,1.2484,1.2552,1.259,1.2644,1.2682,1.2717,1.2732,1.2762,1.2831,1.2877,1.2938,1.2959,1.2974,1.3041,1.3035,1.3033,1.3019,1.306,1.3081,1.309,1.2984,1.2984,1.2984,1.2984,0,0,1.2442,1.2526,1.2539,1.257,1.2634,1.2677,1.2731,1.2791,1.282,1.2868,1.2915,1.299,1.2989,1.3025,1.3044,1.3078,1.3126,1.3073,1.3074,1.308,1.3202,1.3202,1.3211,1.3132,1.3134,1.3135,1.3197,0,1.25,1.2598,1.2627,1.2709,1.2759,1.2777,1.2824,1.2868,1.2897,1.2943,1.2975,1.3028,1.3023,1.3044,1.3078,1.3113,1.3151,1.3109,1.3175,1.3177,1.316,1.3222,1.3223,1.3279,1.3205,1.3207,1.3208,0,1.2581,1.2631,1.2718,1.2776,1.2798,1.284,1.2897,1.2941,1.2992,1.301,1.305,1.3066,1.3123,1.3106,1.3185,1.3156,1.3184,1.3205,1.3208,1.3215,1.3194,1.323,1.3298,1.3306,1.3221,1.322,1.3219,0,1.2607,1.2696,1.2759,1.2785,1.2855,1.2883,1.2914,1.2963,1.2997,1.3046,1.3069,1.3124,1.3154,1.3197,1.3228,1.3213,1.3304,1.3289,1.332,1.3319,1.3338,1.3336,1.341,1.3358,1.3358,1.3357,1.3357,0,1.2668,1.2721,1.2771,1.281,1.2869,1.2902,1.2959,1.299,1.3034,1.3079,1.3098,1.3139,1.3179,1.3225,1.325,1.3311,1.3325,1.3341,1.3347,1.3339,1.3337,1.3358,1.3354,1.336,1.3359,1.3359,1.3358,0,1.2707,1.2743,1.2813,1.2873,1.2889,1.293,1.2981,1.3019,1.3048,1.3105,1.312,1.3166,1.3222,1.3257,1.3329,1.3345,1.3412,1.3417,1.3395,1.3397,1.3426,1.3423,1.3516,1.3529,1.3468,1.3468,1.3469,0,1.2743,1.2784,1.2848,1.2879,1.291,1.296,1.2995,1.3029,1.3064,1.3124,1.3155,1.3212,1.326,1.3349,1.3388,1.3443,1.3449,1.3478,1.3457,1.3448,1.3448,1.3445,1.3449,1.3481,1.3481,1.3481,1.3482,0,1.2804,1.282,1.2869,1.2925,1.2965,1.3011,1.3056,1.3081,1.3122,1.316,1.3218,1.3255,1.3327,1.3384,1.3442,1.3473,1.3484,1.3488,1.3498,1.349,1.3475,1.3483,1.3403,1.3486,1.3485,1.3485,1.3485,1.3485,1.2842,1.2879,1.2929,1.2983,1.3021,1.3063,1.3101,1.3136,1.3184,1.3246,1.3263,1.3323,1.3372,1.3451,1.3483,1.353,1.3527,1.3541,1.3545,1.3548,1.3547,1.3468,1.3541,1.3541,1.3541,1.3541,1.3541,0,1.2903,1.2936,1.2986,1.3049,1.3091,1.3098,1.3149,1.3184,1.3236,1.3281,1.3328,1.3393,1.3448,1.3492,1.3548,1.3578,1.3584,1.3591,1.3589,1.3596,1.3548,1.3534,1.3585,1.3585,1.3585,1.3585,1.3585,1.3585,1.294,1.3002,1.3024,1.3104,1.3138,1.3197,1.3225,1.3263,1.3299,1.3372,1.3417,1.3446,1.349,1.355,1.36,1.3612,1.3631,1.3637,1.3649,1.3604,1.3599,1.3594,1.3581,1.3641,1.3641,1.3693,1.3693,1.3694]},{"header":{"parameterUnit":"m.s-1","parameterCategory":1,"la1":30.2991,"la2":30.254,"lo1":-89.0895,"lo2":-89.0444,"dy":0.0017,"dx":0.0017,"nx":28,"ny":28,"refTime":"2025-11-14T09:00:00:Z","depth":0,"parameterNumber":3,"parameterNumberName":"V-component_of_WINDS"},"data":[0,0,0,0,0,0,0,0,0,0,0,0,0,0,0,0,0,0,0,0,0,0,0,0,0,0,0,0,0,0,0,0,0,0,0,0,0,0,0,0,0,0,0,0,0,0,0,0,0,0,0,0,0,0,0,0,0,0,3.7668,3.7668,0,3.7735,3.7736,3.7737,3.7696,3.7694,3.7692,3.769,3.7755,3.7758,3.7761,0,0,0,0,0,0,0,0,0,0,0,0,0,3.7498,3.7501,3.7668,3.7668,3.7669,3.7735,3.7736,3.7737,3.7696,3.7694,3.7692,3.7689,3.7753,3.7758,3.7762,0,0,0,0,0,0,0,0,0,0,0,0,0,3.7569,3.7502,3.7667,3.7657,3.7657,3.7735,3.7736,3.7737,3.7697,3.7694,3.7691,3.7688,3.7752,3.7757,3.7762,3.7853,0,0,3.7778,3.7781,0,0,0,0,0,0,0,0,3.7565,3.7575,3.7658,3.7658,3.7658,3.7704,3.77,3.7776,3.7698,3.7681,3.769,3.7687,3.774,3.7746,3.7765,3.7856,3.7859,3.7779,3.7782,3.7784,3.7786,0,0,0,0,0,0,0,3.756,3.7572,3.7694,3.7659,3.7659,3.7647,3.7654,3.7714,3.7726,3.7683,3.768,3.7689,3.7739,3.776,3.7766,3.786,3.7779,3.7783,3.7787,3.7789,3.8028,3.8031,0,0,0,0,0,0,3.7557,3.7568,3.7692,3.7696,3.7604,3.7653,3.766,3.7692,3.7725,3.7728,3.7691,3.7687,3.7752,3.776,3.7768,3.7877,3.7784,3.7789,3.7792,3.8025,3.8029,3.8032,0,0,0,0,0,0,3.7553,3.7568,3.7689,3.7632,3.7646,3.7659,3.7695,3.7695,3.7716,3.7732,3.7733,3.771,3.775,3.7761,3.7833,3.7878,3.7792,3.7796,3.8021,3.8026,3.8031,3.8095,0,0,0,0,0,0,3.7549,3.7567,3.7603,3.7633,3.7649,3.7754,3.7698,3.7699,3.7726,3.772,3.775,3.7752,3.7749,3.7825,3.7838,3.7884,3.7801,3.8017,3.8024,3.8029,3.8089,3.8101,3.8112,0,0,0,0,0,3.7543,3.7617,3.7605,3.762,3.7695,3.7757,3.7766,3.7763,3.7729,3.7765,3.7775,3.7751,3.7871,3.7833,3.7847,3.7895,3.8014,3.8022,3.8029,3.8083,3.8099,3.8112,0,0,0,0,0,0,3.7591,3.7621,3.7608,3.7695,3.7724,3.775,3.7795,3.7779,3.7817,3.781,3.7802,3.7809,3.7884,3.7896,3.7853,3.7985,3.7937,3.7948,3.7974,3.7989,3.8,3.7996,3.7805,0,0,0,0,0,3.7612,3.7662,3.7685,3.7759,3.7775,3.7782,3.7809,3.7804,3.7833,3.7845,3.786,3.7888,3.7931,3.7961,3.8002,3.809,3.8095,3.813,3.8142,3.8151,3.8161,3.8208,3.8224,3.8056,3.8056,3.8056,0,0,3.7656,3.7678,3.771,3.7769,3.7791,3.7842,3.7793,3.7848,3.7885,3.7852,3.7922,3.7934,3.7964,3.8045,3.8081,3.8058,3.8208,3.816,3.8168,3.8172,3.8217,3.8233,3.8247,3.8061,3.806,3.8059,0,0,3.7761,3.7783,3.7848,3.7871,3.7906,3.791,3.7926,3.7955,3.7962,3.8032,3.8009,3.8051,3.8127,3.815,3.8171,3.8285,3.8264,3.8298,3.8359,3.8405,3.8419,3.843,3.8471,3.8486,3.8307,3.8307,3.8307,0,3.781,3.7887,3.7883,3.794,3.7967,3.7941,3.8006,3.8028,3.8073,3.8091,3.8065,3.816,3.8178,3.8264,3.8291,3.8309,3.8326,3.8295,3.8417,3.8429,3.844,3.8479,3.8494,3.8311,3.8311,3.831,3.831,0,3.7946,3.8,3.8047,3.8094,3.8126,3.8186,3.819,3.8222,3.8213,3.822,3.8291,3.8312,3.8357,3.8377,3.8368,3.8461,3.8446,3.8419,3.8371,3.846,3.8496,3.8511,3.8317,3.8315,3.8314,3.8313,0,0,3.8085,3.8128,3.8146,3.8167,3.8203,3.8243,3.8302,3.8348,3.8376,3.8407,3.8456,3.8521,3.8496,3.852,3.8513,3.8554,3.8643,3.8522,3.8522,3.8544,3.8747,3.8768,3.8785,3.8629,3.8632,3.8634,3.8744,0,3.8193,3.8298,3.8296,3.8393,3.8442,3.8417,3.8468,3.8495,3.8503,3.8544,3.8551,3.8598,3.8561,3.8576,3.8615,3.8624,3.8684,3.8616,3.8674,3.8676,3.8668,3.8804,3.8826,3.8929,3.8758,3.8761,3.8762,0,3.8333,3.8372,3.8475,3.8504,3.8524,3.857,3.8612,3.8652,3.8681,3.8684,3.8711,3.8698,3.8756,3.8706,3.8786,3.874,3.8763,3.8771,3.8775,3.878,3.8725,3.8814,3.8962,3.8978,3.8785,3.8783,3.8781,0,3.8425,3.8502,3.8574,3.8592,3.8628,3.8661,3.8676,3.8703,3.8731,3.8766,3.8784,3.8825,3.8848,3.8879,3.8877,3.8841,3.8957,3.8907,3.896,3.8961,3.8987,3.8985,3.9141,3.9001,3.9,3.9,3.9,0,3.8547,3.861,3.8616,3.866,3.873,3.8725,3.8794,3.8807,3.883,3.8875,3.8855,3.8897,3.8892,3.8933,3.8931,3.8997,3.9007,3.901,3.9009,3.9013,3.9013,3.9028,3.9022,3.9004,3.9003,3.9002,3.9002,0,3.8661,3.8667,3.8744,3.8771,3.878,3.883,3.8853,3.8894,3.89,3.8957,3.8969,3.8978,3.9026,3.9027,3.9081,3.908,3.9161,3.9151,3.9152,3.9151,3.9204,3.9199,3.9376,3.9399,3.9243,3.9244,3.9245,0,3.8739,3.8788,3.8821,3.8851,3.8869,3.8917,3.8945,3.8942,3.8972,3.9009,3.9045,3.9092,3.9129,3.9207,3.9217,3.9258,3.925,3.9309,3.9256,3.9258,3.9251,3.9249,3.9253,3.9319,3.9321,3.9322,3.9324,0,3.8877,3.8877,3.892,3.8965,3.9,3.9034,3.9066,3.909,3.909,3.9125,3.9175,3.9204,3.926,3.9306,3.9346,3.936,3.9342,3.934,3.9355,3.9359,3.9358,3.936,3.9181,3.9336,3.9335,3.9334,3.9333,3.9333,3.8976,3.9018,3.9049,3.9097,3.9121,3.9151,3.9191,3.9202,3.9244,3.9291,3.9286,3.9341,3.9368,3.942,3.9438,3.948,3.9459,3.948,3.9486,3.9491,3.9497,3.9351,3.9487,3.9487,3.9486,3.9486,3.9486,0,3.9113,3.9131,3.9176,3.9222,3.926,3.924,3.9274,3.9306,3.9356,3.9383,3.9421,3.9478,3.9522,3.9536,3.9579,3.961,3.9603,3.9621,3.9619,3.9623,3.9513,3.9497,3.9627,3.9627,3.9627,3.9627,3.9627,3.9627,3.9189,3.926,3.9264,3.9346,3.9363,3.9419,3.944,3.9467,3.9489,3.9554,3.9592,3.9601,3.9622,3.9667,3.9706,3.9709,3.9725,3.9748,3.9747,3.9645,3.9631,3.9617,3.9602,3.9752,3.9752,3.9854,3.9855,3.9855]}]]